Weather History for Grand Canyon, AZ

Change the Weather History Date:

Wednesday, October 24, 2012

  Actual Average Record
Temperature  
Mean Temperature 42 °F -  
Max Temperature 59 °F 56 °F 73 °F (2003)
Min Temperature 23 °F 25 °F 12 °F (1996)
Degree Days  
Heating Degree Days 24    
Moisture  
Dew Point 18 °F    
Average Humidity 43    
Maximum Humidity 89    
Minimum Humidity 14    
Precipitation  
Precipitation 0.00 in - - ()
Sea Level Pressure  
Sea Level Pressure 29.88 in    
Wind  
Wind Speed 9 mph (SW)    
Max Wind Speed 24 mph    
Max Gust Speed 39 mph    
Visibility 10 miles    
Events      
Averages and records for this station are not official NWS values.
T = Trace of Precipitation, MM = Missing Value Source: NWS Daily Summary

Daily Weather History Graph

Daily Weather History Graph

Search for Another Location

Airport:

Trip Planner

Search our weather history database for the weather conditions in past years. The results will help you decide how hot, cold, wet, or windy it might be!

Date:

Astronomy

Oct. 24, 2012 Rise Set
Actual Time 6:43 AM MST 5:40 PM MST
Civil Twilight 6:17 AM MST 6:07 PM MST
Nautical Twilight 5:47 AM MST 6:37 PM MST
Astronomical Twilight 5:18 AM MST 7:06 PM MST
Moon 2:51 PM MST (10/24) 1:51 AM MST (10/24)
Length of Visible Light 11h 49m
Length of Day
10h 56m
Waxing Gibbous, 77% of the Moon is Illuminated
Oct 24
Waxing Gibbous
Oct 29
Full
Nov 6
Last Quarter
Nov 13
New
Nov 20
First Quarter

Hourly Weather History & Observations

Time (MST) Temp. Windchill Dew Point Humidity Pressure Visibility Wind Dir Wind Speed Gust Speed Precip Events Conditions
12:54 AM 42.1 °F 37.7 °F 36.0 °F 79% 29.83 in 10.0 mi SSW 6.9 mph - N/A   Clear
1:54 AM 36.0 °F - 33.1 °F 89% 29.85 in 10.0 mi Calm Calm - N/A   Clear
2:54 AM 34.0 °F - 30.9 °F 89% 29.83 in 10.0 mi Calm Calm - N/A   Clear
3:54 AM 39.0 °F 35.7 °F 33.1 °F 79% 29.81 in 10.0 mi SW 4.6 mph - N/A   Clear
4:54 AM 39.9 °F 33.9 °F 32.0 °F 73% 29.82 in 10.0 mi SSW 9.2 mph - N/A   Clear
5:54 AM 39.9 °F 33.4 °F 28.0 °F 63% 29.83 in 10.0 mi SSW 10.4 mph - N/A   Clear
6:54 AM 39.0 °F 33.4 °F 25.0 °F 57% 29.84 in 10.0 mi SSW 8.1 mph - N/A   Clear
7:54 AM 45.0 °F 39.7 °F 19.9 °F 37% 29.85 in 10.0 mi SSW 10.4 mph - N/A   Clear
8:54 AM 48.9 °F - 16.0 °F 27% 29.85 in 10.0 mi SSW 17.3 mph 25.3 mph N/A   Clear
9:54 AM 52.0 °F - 18.0 °F 26% 29.86 in 10.0 mi SW 17.3 mph 29.9 mph N/A   Clear
10:54 AM 55.9 °F - 17.1 °F 22% 29.81 in - SSW 24.2 mph 33.4 mph N/A   Clear
11:54 AM 57.9 °F - 19.0 °F 22% 29.81 in 10.0 mi SW 21.9 mph 39.1 mph N/A   Clear
12:54 PM 59.0 °F - 19.0 °F 21% 29.78 in 10.0 mi SW 23.0 mph 33.4 mph N/A   Clear
2:54 PM 57.9 °F - 9.0 °F 14% 29.83 in 10.0 mi WSW 19.6 mph 33.4 mph N/A   Clear
3:54 PM 55.9 °F - 9.0 °F 15% 29.83 in 10.0 mi West 12.7 mph 26.5 mph N/A   Clear
4:54 PM 53.1 °F - 9.0 °F 17% 29.87 in 10.0 mi WSW 12.7 mph 28.8 mph N/A   Clear
5:54 PM 48.0 °F - 12.9 °F 24% 29.92 in 10.0 mi West 6.9 mph - N/A   Clear
6:54 PM 44.1 °F 40.8 °F 10.0 °F 25% 29.96 in 10.0 mi WSW 5.8 mph - N/A   Clear
7:54 PM 42.1 °F 38.4 °F 8.1 °F 25% 29.96 in 10.0 mi WSW 5.8 mph - N/A   Clear
8:54 PM 37.9 °F 35.5 °F 10.0 °F 32% 29.98 in 10.0 mi WSW 3.5 mph - N/A   Clear
9:54 PM 28.9 °F 25.2 °F 9.0 °F 43% 30.03 in 10.0 mi NE 3.5 mph - N/A   Clear
10:54 PM 24.1 °F - 8.1 °F 51% 30.06 in 10.0 mi Calm Calm - N/A   Clear
11:54 PM 23.0 °F - 8.1 °F 53% 30.05 in 10.0 mi Calm Calm - N/A   Clear